Regional Weather Roundup
Issued by NWS Portland, ME

Home | Current Version | Previous Version | Text Only | Print | Product List | Glossary On
Versions: 1 2 3 4 5 6 7 8 9 10 11 12 13 14 15 16 17 18 19 20 21 22 23 24 25 26 27 28 29 30 31 32 33 34 35 36 37 38 39 40 41 42 43 44 45 46 47 48 49 50
000
ASUS41 KGYX 121510
RWRGYX
WEATHER ROUNDUP FOR MAINE AND NEW HAMPSHIRE
NATIONAL WEATHER SERVICE GRAY ME
1000 AM EST FRI FEB 12 2016

MEZ002-005-006-010-012-015-018-020-021-024-026-027-029-121600-
MAINE

CITY           SKY/WX    TMP DP  RH WIND       PRES   REMARKS
PORTLAND       MOSUNNY    8  -8  48 W7        30.13F
SANFORD        SUNNY     10  -8  44 W12G18    30.12S WCI  -4
BAR HARBOR     MOSUNNY   10  -8  44 W9        30.09R
WISCASSET      SUNNY      8  -8  48 W8        30.14S
ROCKLAND       SUNNY      7  -9  48 W8        30.10F
FRYEBURG       SUNNY     12 -10  36 VRB6      30.07S
LEWISTONAUBURN SUNNY      7 -11  43 SW3       30.09S
AUGUSTA        SUNNY      5 -11  47 W7        30.10R
WATERVILLE     SUNNY      8 -10  43 VRB6      30.06R
BANGOR         SUNNY      5 -11  47 W7        30.07R
GREENVILLE       N/A      0 -12  57 NW12G21   29.88R WCI -17
MILLINOCKET    SUNNY      4 -12  48 W14G23    30.01R WCI -14
HOULTON        SUNNY      2 -11  54 W10       29.94S WCI -14
PRESQUE ISLE   FLURRIES   3  -8  60 W12       29.95R WCI -13
FRENCHVILLE    CLOUDY    -1 -11  62 NW10G22   29.85R WCI -17
CARIBOU        MOSUNNY    2  -9  60 NW8       29.90S
$$

NHZ002-005-008-009-011-012-014-121600-
NEW HAMPSHIRE

CITY           SKY/WX    TMP DP  RH WIND       PRES   REMARKS
PORTSMOUTH     MOSUNNY   10  -7  45 W13       30.14F WCI  -5
ROCHESTER      SUNNY      9  -8  46 NW8       30.11F
NASHUA         SUNNY     19  -2  38 CALM      30.16F
MANCHESTER     MOSUNNY   12  -6  44 CALM      30.13F
CONCORD        SUNNY     10  -7  46 CALM      30.13F
LACONIA        SUNNY      7  -8  51 SW6       30.10F
PLYMOUTH       FAIR       7  -7  54 W6        30.09F
BERLIN         SUNNY      5  -9  52 VRB5      30.00F
WHITEFIELD     SUNNY      4  -9  55 S5        30.04S
JAFFREY        MIX PCPN   9  -5  53 VRB7      30.06F
KEENE          SUNNY     10  -6  48 S5        30.13F
LEBANON        SUNNY      8  -5  55 CALM      30.10F
MT WASHINGTON  NOT AVBL
$$

VTZ005-007-008-121600-
VERMONT

CITY           SKY/WX    TMP DP  RH WIND       PRES   REMARKS
ST JOHNSBURY     N/A      4  -8  57 MISG      30.06F
MONTPELIER     FAIR       5  -7  57 SE6       30.05F
BURLINGTON     FAIR       9  -5  53 S9        30.09F
$$

MAZ007-012-024-CTZ003-RIZ002-NYZ038-NYZ072-121600-
SOUTHERN NEW ENGLAND AND NY

CITY           SKY/WX    TMP DP  RH WIND       PRES   REMARKS
BOSTON         MOSUNNY   14  -5  42 NW10      30.18F WCI   1
WORCESTER      SUNNY     10  -2  58 W16G26    30.08F WCI  -7
NANTUCKET      SUNNY     19   4  51 W17       30.21F WCI   4
PROVIDENCE     MOSUNNY   16   0  49 W7        30.23S
HARTFORD       PTSUNNY   15   1  53 SW9       30.19F
ALBANY         PTSUNNY   15   3  59 S7        30.16F
NEW YORK CITY  MOSUNNY   22   1  40 NW3       30.25F
$$

ANZ081-ANZ082-ANZ150-NHZ014-MEZ023>029-121600-
COASTAL MARINE OBSERVATIONS

STATION/POSITION TIME  TEMP    WIND        PRES    WAVE
                       AIR SEA DIR/SP/G            HT/PER
                 (UTC) (F)     (DEG/KT/KT) (MB)    (FT/S)
MOUNT DESERT ROC 1500   10     290/ 19/ 23 1018.6R
MATINICUS ROCK   1500          290/ 22/ 24 1018.9F
ISLE OF SHOALS   1500   10     290/ 16/ 18 1020.3F
JEFFREYS LEDGE   1404      43                N/A     6/ 5
CASHES LEDGE BUO 1450   16 42  270/ 10/ 14 1019.8R   5/ 5
GEORGES BANK BUO 1450   28 44              1019.1R  15/11
$$

.............KEY..............
   WCI - WIND CHILL
   TC  - TEMPERATURE IN CELSIUS
   VSB - VISIBILITY IN MILES
   HX  - HEAT INDEX
   FAIR- INDICATES FEW OR NO CLOUDS BELOW 12,000 FT, WITH NO
         SIGNIFICANT WEATHER AND/OR OBSTRUCTIONS TO VISIBILITY.





USA.gov is the U.S. government's official web portal to all federal, state and local government web resources and services.